This is the latest recevied weather packets stored in our database for station/object KR4ELZ. If no packets are shown the sender has not sent any weather packets the latest 10 day(s).
| Time | Temp. | Humidity | Pressure | Rain* | Wind** | Luminosity | Snow |
|---|---|---|---|---|---|---|---|
| 1777774168 | 13.89° C | 62% | 1018.6 hPa | 0 mm | - | 0 W/m² | - |
| 1777773865 | 13.89° C | 61% | 1018.5 hPa | 0 mm | - | 0 W/m² | - |
| 1777773561 | 13.89° C | 60% | 1018.3 hPa | 0 mm | - | 0 W/m² | - |
| 1777773258 | 13.89° C | 60% | 1018.3 hPa | 0 mm | - | 0 W/m² | - |
| 1777772954 | 13.89° C | 59% | 1018.2 hPa | 0 mm | - | 0 W/m² | - |
| 1777772652 | 14.44° C | 58% | 1018.2 hPa | 0 mm | - | 0 W/m² | - |
| 1777772350 | 14.44° C | 58% | 1018 hPa | 0 mm | - | 0 W/m² | - |
| 1777772046 | 14.44° C | 57% | 1017.7 hPa | 0 mm | - | 0 W/m² | - |
| 1777771743 | 14.44° C | 56% | 1017.8 hPa | 0 mm | - | 0 W/m² | - |
| 1777771441 | 15° C | 56% | 1017.7 hPa | 0 mm | - | 0 W/m² | - |
| 1777771137 | 15° C | 54% | 1017.5 hPa | 0 mm | - | 0 W/m² | - |
| 1777770834 | 15° C | 52% | 1017.3 hPa | 0 mm | - | 0 W/m² | - |
| 1777770531 | 15° C | 52% | 1017.4 hPa | 0 mm | - | 0 W/m² | - |
| 1777770228 | 15° C | 53% | 1017 hPa | 0 mm | - | 0 W/m² | - |
| 1777769925 | 15.56° C | 48% | 1017.2 hPa | 0 mm | - | 0 W/m² | - |
| 1777769622 | 16.11° C | 47% | 1016.8 hPa | 0 mm | - | 0 W/m² | - |
| 1777769318 | 16.11° C | 46% | 1016.7 hPa | 0 mm | - | 1 W/m² | - |
| 1777769016 | 16.67° C | 45% | 1017 hPa | 0 mm | - | 1 W/m² | - |
| 1777768713 | 16.67° C | 45% | 1017 hPa | 0 mm | - | 2 W/m² | - |
| 1777768410 | 16.67° C | 46% | 1016.6 hPa | 0 mm | - | 3 W/m² | - |
| 1777768107 | 17.22° C | 43% | 1016.8 hPa | 0 mm | - | 5 W/m² | - |
| 1777767804 | 17.78° C | 43% | 1016.6 hPa | 0 mm | - | 6 W/m² | - |
| 1777767500 | 17.78° C | 41% | 1016.7 hPa | 0 mm | - | 9 W/m² | - |
| 1777767197 | 18.33° C | 40% | 1016.5 hPa | 0 mm | - | 12 W/m² | - |
| 1777766894 | 18.33° C | 40% | 1016.4 hPa | 0 mm | - | 16 W/m² | - |
* Rain latest hour (hover to see other rain measurements)
** Current wind speed in m/s (hover to see current wind gust speed)